Terminal Aerodrome Forecast
Issued by NWS

Home | Current Version | Previous Version | Text Only | Print | Product List | Glossary On
Versions: 1 2 3 4 5 6 7 8 9 10 11 12 13 14 15 16 17 18 19
000
FTUS43 KGLD 240530 CCA
TAFMCK
TAF COR
KMCK 240530Z 2406/2506 30011KT P6SM SCT120
     FM241000 20009KT P6SM VCSH SCT045 OVC060
     FM241200 33010KT 6SM SHRA SCT035 OVC060
     FM241400 33015KT 6SM SHRA BKN025 OVC030
     FM241900 33012G25KT P6SM VCSH OVC025
     FM242100 33018G26KT P6SM VCSH OVC035=

USA.gov is the U.S. government's official web portal to all federal, state and local government web resources and services.